GFSFLT1_prec_snow_153.txt.gz
Snowfall_Accumulation
0.0 0.0 0.0 0.0 0.0 0.0 0.0 0.0 0.0 0.0 0.0 0.0 0.0 0.0 0.0 0.0 0.0 0.0 0.0 0.0 0.0 0.0 0.0 0.0 0.0 0.0 0.0 0.0 0.0 0.0 0.0 0.0
0.0 0.0 0.0 0.0 0.0 0.0 0.0 0.0 0.0 0.0 0.0 0.0 0.0 0.0 0.0 0.0 0.0 0.0 0.0 0.0 0.0 0.0 0.0 0.0 0.0 0.0 0.0 0.0 0.0 0.0 0.0 0.0
0.0 0.0 0.0 0.0 0.0 0.0 0.0 0.0 0.0 0.0 0.0 0.0 0.0 0.0 0.0 0.0 0.0 0.0 0.0 0.0 0.0 0.0 0.0 0.0 0.0 0.0 0.0 0.0 0.0 0.0 0.0 0.0
0.0 0.0 0.0 0.0 0.0 0.0 0.0 0.0 0.0 0.0 0.0 0.0 0.0 0.0 0.0 0.0 0.0 0.0 0.0 0.0 0.0 0.0 0.0 0.0 0.0 0.0 0.0 0.0 0.0 0.0 0.0 0.0
0.0 0.0 0.0 0.0 0.0 0.0 0.0 0.0 0.0 0.0 0.0 0.0 0.0 0.0 0.0 0.0 0.0 0.0 0.0 0.0 0.0 0.0 0.0 0.0 0.0 0.0 0.0 0.0 0.0 0.0 0.0 0.0
0.0 0.0 0.0 0.0 0.0 0.0 0.0 0.0 0.0 0.0 0.0 0.0 0.0 0.0 0.0 0.0 0.0 0.0 0.0 0.0 0.0 0.0 0.0 0.0 0.0 0.0 0.0 0.0 0.0 0.0 0.0 0.0
0.0 0.0 0.0 0.0 0.0 0.0 0.0 0.0 0.0 0.0 0.0 0.0 0.0 0.0 0.0 0.0 0.0 0.0 0.0 0.0 0.0 0.0 0.0 0.0 0.0 0.0 0.0 0.0 0.0 0.0 0.0 0.0
0.5 0.0 0.0 0.0 0.0 0.0 0.0 0.0 0.0 0.0 0.0 0.0 0.0 0.0 0.0 0.0 0.0 0.0 0.0 0.0 0.0 0.0 0.0 0.0 0.0 0.0 0.0 0.0 0.0 0.0 0.0 0.0
1.1 0.0 0.0 0.0 0.0 0.0 0.0 0.0 0.0 0.0 0.0 0.0 0.0 0.0 0.0 0.0 0.0 0.0 0.0 0.0 0.0 0.0 0.0 0.0 0.0 0.0 0.0 0.0 0.0 0.0 0.0 0.0
2.2 0.1 1.1 1.1 1.0 0.5 0.1 0.1 0.0 0.0 0.0 0.0 0.0 0.0 0.0 0.0 0.0 0.0 0.0 0.1 0.0 0.0 0.0 0.0 0.0 0.0 0.0 0.0 0.0 0.0 0.0 0.0
3.1 4.3 4.1 2.2 2.1 1.0 0.1 0.1 0.1 0.1 0.2 0.0 0.0 0.0 0.0 0.0 0.0 0.0 0.0 0.0 0.1 0.1 0.0 0.0 0.0 0.0 0.0 0.0 0.0 0.0 0.0 0.0
5.0 8.8 7.4 5.6 4.9 3.8 2.4 2.2 1.9 0.8 0.7 0.1 0.1 0.2 0.0 0.0 0.0 0.0 0.0 0.0 0.0 0.0 0.0 0.0 0.0 0.0 0.0 0.0 0.0 0.0 0.0 0.0
4.9 3.6 5.3 10.8 10.1 6.0 4.9 3.4 3.4 3.8 2.8 2.3 2.3 2.9 1.6 1.7 1.6 0.3 0.1 0.0 0.3 0.1 0.0 0.0 0.0 0.0 0.0 0.0 0.0 0.0 0.0 0.0
10.1 8.9 7.6 5.8 7.8 8.6 6.7 5.0 4.3 6.0 4.7 3.8 3.3 2.8 1.7 1.7 2.4 2.9 0.0 1.0 0.0 1.3 0.6 0.4 0.3 0.4 0.1 0.0 0.0 0.0 0.0 0.0
8.5 8.1 10.8 11.1 6.5 6.2 5.4 4.1 9.5 8.4 5.7 5.2 5.2 5.0 3.4 2.2 1.9 2.3 1.6 3.0 3.1 3.9 3.7 2.3 2.1 0.9 0.8 0.1 0.1 0.1 0.1 0.0
6.3 7.3 5.5 6.7 7.6 5.1 5.3 5.4 4.0 5.6 5.8 4.5 3.7 4.3 5.8 3.7 2.8 3.4 4.2 3.7 3.1 2.9 2.5 2.4 3.8 3.4 3.2 2.3 1.4 1.2 1.4 0.4
1.6 1.4 2.1 0.6 0.7 0.8 1.4 0.9 1.1 0.8 1.8 1.6 2.7 0.8 2.7 3.1 1.7 1.9 1.7 1.6 2.1 3.2 3.8 2.7 4.8 5.1 5.0 4.1 2.9 2.4 1.8 1.5
1.3 0.5 0.4 0.3 0.1 0.0 0.0 0.1 0.0 0.0 0.2 0.4 0.1 0.0 0.0 0.0 0.7 1.0 0.0 0.4 0.8 5.2 6.3 7.6 2.2 5.0 5.0 4.7 5.4 3.6 2.8 2.4
0.1 0.4 0.2 0.1 0.0 0.0 0.0 0.0 0.0 0.0 0.0 0.0 0.0 0.2 0.0 0.0 0.0 0.0 0.0 0.0 0.0 0.0 0.6 0.0 1.0 1.4 2.6 8.1 4.3 10.0 6.2 3.8

GFSFLT1_prec_snow_159.txt.gz
Snowfall_Accumulation
0.0 0.0 0.0 0.0 0.0 0.0 0.0 0.0 0.0 0.0 0.0 0.0 0.0 0.0 0.0 0.0 0.0 0.0 0.0 0.0 0.0 0.0 0.0 0.0 0.0 0.0 0.0 0.0 0.0 0.0 0.0 0.0
0.0 0.0 0.0 0.0 0.0 0.0 0.0 0.0 0.0 0.0 0.0 0.0 0.0 0.0 0.0 0.0 0.0 0.0 0.0 0.0 0.0 0.0 0.0 0.0 0.0 0.0 0.0 0.0 0.0 0.0 0.0 0.0
0.0 0.0 0.0 0.0 0.0 0.0 0.0 0.0 0.0 0.0 0.0 0.0 0.0 0.0 0.0 0.0 0.0 0.0 0.0 0.0 0.0 0.0 0.0 0.0 0.0 0.0 0.0 0.0 0.0 0.0 0.0 0.0
0.0 0.0 0.0 0.0 0.0 0.0 0.0 0.0 0.0 0.0 0.0 0.0 0.0 0.0 0.0 0.0 0.0 0.0 0.0 0.0 0.0 0.0 0.0 0.0 0.0 0.0 0.0 0.0 0.0 0.0 0.0 0.0
0.0 0.0 0.0 0.0 0.0 0.0 0.0 0.0 0.0 0.0 0.0 0.0 0.0 0.0 0.0 0.0 0.0 0.0 0.0 0.0 0.0 0.0 0.0 0.0 0.0 0.0 0.0 0.0 0.0 0.0 0.0 0.0
0.0 0.0 0.0 0.0 0.0 0.0 0.0 0.0 0.0 0.0 0.0 0.0 0.0 0.0 0.0 0.0 0.0 0.0 0.0 0.0 0.0 0.0 0.0 0.0 0.0 0.0 0.0 0.0 0.0 0.0 0.0 0.0
0.0 0.0 0.0 0.0 0.0 0.0 0.0 0.0 0.0 0.0 0.0 0.0 0.0 0.0 0.0 0.0 0.0 0.0 0.0 0.0 0.0 0.0 0.0 0.0 0.0 0.0 0.0 0.0 0.0 0.0 0.0 0.0
0.5 0.0 0.0 0.0 0.0 0.0 0.0 0.0 0.0 0.0 0.0 0.0 0.0 0.0 0.0 0.0 0.0 0.0 0.0 0.0 0.0 0.0 0.0 0.0 0.0 0.0 0.0 0.0 0.0 0.0 0.0 0.0
1.1 0.0 0.0 0.0 0.0 0.0 0.0 0.0 0.0 0.0 0.0 0.0 0.0 0.0 0.0 0.0 0.0 0.0 0.0 0.0 0.0 0.0 0.0 0.0 0.0 0.0 0.0 0.0 0.0 0.0 0.0 0.0
2.2 0.1 1.1 1.1 1.0 0.5 0.1 0.1 0.0 0.0 0.0 0.0 0.0 0.0 0.0 0.0 0.0 0.0 0.0 0.1 0.0 0.0 0.0 0.0 0.0 0.0 0.0 0.0 0.0 0.0 0.0 0.0
3.1 4.3 4.1 2.2 2.1 1.0 0.1 0.1 0.1 0.1 0.2 0.0 0.0 0.0 0.0 0.0 0.0 0.0 0.0 0.0 0.1 0.1 0.0 0.0 0.0 0.0 0.0 0.0 0.0 0.0 0.0 0.0
5.0 8.8 7.4 5.6 4.9 3.8 2.4 2.2 1.9 0.8 0.7 0.1 0.1 0.2 0.0 0.0 0.0 0.0 0.0 0.0 0.0 0.0 0.0 0.0 0.0 0.0 0.0 0.0 0.0 0.0 0.0 0.0
4.9 3.6 5.3 10.8 10.1 6.0 4.9 3.4 3.4 3.8 2.8 2.3 2.3 2.9 1.6 1.7 1.6 0.3 0.1 0.0 0.3 0.1 0.0 0.0 0.0 0.0 0.0 0.0 0.0 0.0 0.0 0.1
10.1 8.9 7.6 5.8 7.8 8.6 6.7 5.0 4.3 6.0 4.7 3.8 3.3 2.8 1.7 1.7 2.4 2.9 0.0 1.0 0.0 1.3 0.6 0.4 0.3 0.4 0.1 0.0 0.0 0.0 0.1 0.2
8.5 8.1 10.8 11.1 6.5 6.2 5.4 4.1 9.5 8.4 5.7 5.2 5.2 5.0 3.4 2.2 1.9 2.3 1.6 3.0 3.1 3.9 3.7 2.3 2.2 1.0 0.8 0.1 0.1 0.1 0.1 0.2
6.3 7.3 5.5 6.7 7.6 5.1 5.3 5.4 4.0 5.6 5.8 4.5 3.7 4.3 5.8 3.7 2.8 3.4 4.2 3.7 3.1 2.9 2.5 2.4 3.8 3.5 3.3 2.3 1.4 1.3 1.6 0.7
1.6 1.4 2.1 0.6 0.7 0.8 1.4 0.9 1.1 0.8 1.8 1.6 2.7 0.8 2.7 3.1 1.7 1.9 1.7 1.6 2.1 3.2 3.8 2.8 4.9 5.2 5.0 4.1 3.0 2.6 2.0 1.9
1.3 0.5 0.4 0.3 0.1 0.0 0.0 0.1 0.0 0.0 0.2 0.4 0.1 0.0 0.0 0.0 0.7 1.0 0.0 0.4 0.8 5.2 6.3 7.6 2.2 5.0 5.0 4.7 5.4 3.7 3.1 2.8
0.1 0.4 0.2 0.1 0.0 0.0 0.0 0.0 0.0 0.0 0.0 0.0 0.0 0.2 0.0 0.0 0.0 0.0 0.0 0.0 0.0 0.0 0.6 0.0 1.0 1.4 2.6 8.1 4.3 10.1 6.3 4.0

GFSFLT1_prec_snow_162.txt.gz
Snowfall_Accumulation
0.0 0.0 0.0 0.0 0.0 0.0 0.0 0.0 0.0 0.0 0.0 0.0 0.0 0.0 0.0 0.0 0.0 0.0 0.0 0.0 0.0 0.0 0.0 0.0 0.0 0.0 0.0 0.0 0.0 0.0 0.0 0.0
0.0 0.0 0.0 0.0 0.0 0.0 0.0 0.0 0.0 0.0 0.0 0.0 0.0 0.0 0.0 0.0 0.0 0.0 0.0 0.0 0.0 0.0 0.0 0.0 0.0 0.0 0.0 0.0 0.0 0.0 0.0 0.0
0.0 0.0 0.0 0.0 0.0 0.0 0.0 0.0 0.0 0.0 0.0 0.0 0.0 0.0 0.0 0.0 0.0 0.0 0.0 0.0 0.0 0.0 0.0 0.0 0.0 0.0 0.0 0.0 0.0 0.0 0.0 0.0
0.0 0.0 0.0 0.0 0.0 0.0 0.0 0.0 0.0 0.0 0.0 0.0 0.0 0.0 0.0 0.0 0.0 0.0 0.0 0.0 0.0 0.0 0.0 0.0 0.0 0.0 0.0 0.0 0.0 0.0 0.0 0.0
0.0 0.0 0.0 0.0 0.0 0.0 0.0 0.0 0.0 0.0 0.0 0.0 0.0 0.0 0.0 0.0 0.0 0.0 0.0 0.0 0.0 0.0 0.0 0.0 0.0 0.0 0.0 0.0 0.0 0.0 0.0 0.0
0.0 0.0 0.0 0.0 0.0 0.0 0.0 0.0 0.0 0.0 0.0 0.0 0.0 0.0 0.0 0.0 0.0 0.0 0.0 0.0 0.0 0.0 0.0 0.0 0.0 0.0 0.0 0.0 0.0 0.0 0.0 0.0
0.0 0.0 0.0 0.0 0.0 0.0 0.0 0.0 0.0 0.0 0.0 0.0 0.0 0.0 0.0 0.0 0.0 0.0 0.0 0.0 0.0 0.0 0.0 0.0 0.0 0.0 0.0 0.0 0.0 0.0 0.0 0.0
0.5 0.0 0.0 0.0 0.0 0.0 0.0 0.0 0.0 0.0 0.0 0.0 0.0 0.0 0.0 0.0 0.0 0.0 0.0 0.0 0.0 0.0 0.0 0.0 0.0 0.0 0.0 0.0 0.0 0.0 0.0 0.0
1.1 0.0 0.0 0.0 0.0 0.0 0.0 0.0 0.0 0.0 0.0 0.0 0.0 0.0 0.0 0.0 0.0 0.0 0.0 0.0 0.0 0.0 0.0 0.0 0.0 0.0 0.0 0.0 0.0 0.0 0.0 0.0
2.2 0.1 1.1 1.1 1.0 0.5 0.1 0.1 0.0 0.0 0.0 0.0 0.0 0.0 0.0 0.0 0.0 0.0 0.0 0.1 0.0 0.0 0.0 0.0 0.0 0.0 0.0 0.0 0.0 0.0 0.0 0.0
3.1 4.3 4.1 2.2 2.1 1.0 0.1 0.1 0.1 0.1 0.2 0.0 0.0 0.0 0.0 0.0 0.0 0.0 0.0 0.0 0.1 0.1 0.0 0.0 0.0 0.0 0.0 0.0 0.0 0.0 0.0 0.0
5.0 8.8 7.4 5.6 4.9 3.8 2.4 2.2 1.9 0.8 0.7 0.1 0.1 0.2 0.0 0.0 0.0 0.0 0.0 0.0 0.0 0.0 0.0 0.0 0.0 0.0 0.0 0.0 0.0 0.0 0.0 0.0
4.9 3.6 5.3 10.8 10.1 6.0 4.9 3.4 3.4 3.8 2.8 2.3 2.3 2.9 1.6 1.7 1.6 0.3 0.1 0.0 0.3 0.1 0.0 0.0 0.0 0.0 0.0 0.0 0.0 0.0 0.0 0.1
10.1 8.9 7.6 5.8 7.8 8.6 6.7 5.0 4.3 6.0 4.7 3.8 3.3 2.8 1.7 1.7 2.4 2.9 0.0 1.0 0.0 1.3 0.6 0.4 0.3 0.4 0.1 0.0 0.0 0.0 0.1 0.2
8.5 8.1 10.8 11.1 6.5 6.2 5.4 4.1 9.5 8.4 5.7 5.2 5.2 5.0 3.4 2.2 1.9 2.3 1.6 3.0 3.1 3.9 3.7 2.3 2.2 1.0 0.8 0.1 0.1 0.1 0.1 0.2
6.3 7.4 5.6 6.7 7.6 5.1 5.3 5.4 4.0 5.6 5.8 4.5 3.7 4.3 5.8 3.7 2.8 3.4 4.2 3.7 3.1 2.9 2.5 2.4 3.8 3.5 3.3 2.3 1.4 1.3 1.6 0.7
2.3 1.6 2.1 0.6 0.7 0.8 1.4 0.9 1.1 0.8 1.8 1.6 2.7 0.8 2.7 3.1 1.7 1.9 1.7 1.6 2.1 3.2 3.8 2.8 4.9 5.2 5.0 4.1 3.0 2.6 2.0 1.9
1.5 0.5 0.4 0.3 0.1 0.0 0.0 0.1 0.0 0.0 0.2 0.4 0.1 0.0 0.0 0.0 0.7 1.0 0.0 0.4 0.8 5.2 6.3 7.6 2.2 5.0 5.0 4.7 5.4 3.7 3.1 2.8
0.1 0.4 0.2 0.1 0.0 0.0 0.0 0.0 0.0 0.0 0.0 0.0 0.0 0.2 0.0 0.0 0.0 0.0 0.0 0.0 0.0 0.0 0.6 0.0 1.0 1.4 2.6 8.1 4.3 10.1 6.3 4.0

GFSFLT1_prec_snow_165.txt.gz
Snowfall_Accumulation
0.0 0.0 0.0 0.0 0.0 0.0 0.0 0.0 0.0 0.0 0.0 0.0 0.0 0.0 0.0 0.0 0.0 0.0 0.0 0.0 0.0 0.0 0.0 0.0 0.0 0.0 0.0 0.0 0.0 0.0 0.0 0.0
0.0 0.0 0.0 0.0 0.0 0.0 0.0 0.0 0.0 0.0 0.0 0.0 0.0 0.0 0.0 0.0 0.0 0.0 0.0 0.0 0.0 0.0 0.0 0.0 0.0 0.0 0.0 0.0 0.0 0.0 0.0 0.0
0.0 0.0 0.0 0.0 0.0 0.0 0.0 0.0 0.0 0.0 0.0 0.0 0.0 0.0 0.0 0.0 0.0 0.0 0.0 0.0 0.0 0.0 0.0 0.0 0.0 0.0 0.0 0.0 0.0 0.0 0.0 0.0
0.0 0.0 0.0 0.0 0.0 0.0 0.0 0.0 0.0 0.0 0.0 0.0 0.0 0.0 0.0 0.0 0.0 0.0 0.0 0.0 0.0 0.0 0.0 0.0 0.0 0.0 0.0 0.0 0.0 0.0 0.0 0.0
0.0 0.0 0.0 0.0 0.0 0.0 0.0 0.0 0.0 0.0 0.0 0.0 0.0 0.0 0.0 0.0 0.0 0.0 0.0 0.0 0.0 0.0 0.0 0.0 0.0 0.0 0.0 0.0 0.0 0.0 0.0 0.0
0.0 0.0 0.0 0.0 0.0 0.0 0.0 0.0 0.0 0.0 0.0 0.0 0.0 0.0 0.0 0.0 0.0 0.0 0.0 0.0 0.0 0.0 0.0 0.0 0.0 0.0 0.0 0.0 0.0 0.0 0.0 0.0
0.0 0.0 0.0 0.0 0.0 0.0 0.0 0.0 0.0 0.0 0.0 0.0 0.0 0.0 0.0 0.0 0.0 0.0 0.0 0.0 0.0 0.0 0.0 0.0 0.0 0.0 0.0 0.0 0.0 0.0 0.0 0.0
0.5 0.0 0.0 0.0 0.0 0.0 0.0 0.0 0.0 0.0 0.0 0.0 0.0 0.0 0.0 0.0 0.0 0.0 0.0 0.0 0.0 0.0 0.0 0.0 0.0 0.0 0.0 0.0 0.0 0.0 0.0 0.0
1.1 0.0 0.0 0.0 0.0 0.0 0.0 0.0 0.0 0.0 0.0 0.0 0.0 0.0 0.0 0.0 0.0 0.0 0.0 0.0 0.0 0.0 0.0 0.0 0.0 0.0 0.0 0.0 0.0 0.0 0.0 0.0
2.2 0.1 1.1 1.1 1.0 0.5 0.1 0.1 0.0 0.0 0.0 0.0 0.0 0.0 0.0 0.0 0.0 0.0 0.0 0.1 0.0 0.0 0.0 0.0 0.0 0.0 0.0 0.0 0.0 0.0 0.0 0.0
3.1 4.3 4.1 2.2 2.1 1.0 0.1 0.1 0.1 0.1 0.2 0.0 0.0 0.0 0.0 0.0 0.0 0.0 0.0 0.0 0.1 0.1 0.0 0.0 0.0 0.0 0.0 0.0 0.0 0.0 0.0 0.0
5.0 8.8 7.4 5.6 4.9 3.8 2.4 2.2 1.9 0.8 0.7 0.1 0.1 0.2 0.0 0.0 0.0 0.0 0.0 0.0 0.0 0.0 0.0 0.0 0.0 0.0 0.0 0.0 0.0 0.0 0.0 0.0
4.9 3.6 5.3 10.8 10.1 6.0 4.9 3.4 3.4 3.8 2.8 2.3 2.3 2.9 1.6 1.7 1.6 0.3 0.1 0.0 0.3 0.1 0.0 0.0 0.0 0.0 0.0 0.0 0.0 0.0 0.0 0.1
10.1 8.9 7.6 5.8 7.8 8.6 6.7 5.0 4.3 6.0 4.7 3.8 3.3 2.8 1.7 1.7 2.4 2.9 0.0 1.0 0.0 1.3 0.6 0.4 0.3 0.4 0.1 0.0 0.0 0.0 0.1 0.2
8.5 8.1 10.8 11.1 6.5 6.2 5.4 4.1 9.5 8.4 5.7 5.2 5.2 5.0 3.4 2.2 1.9 2.3 1.6 3.0 3.1 3.9 3.7 2.3 2.2 1.0 0.8 0.1 0.1 0.1 0.1 0.2
6.3 7.4 5.6 6.7 7.6 5.1 5.3 5.4 4.0 5.6 5.8 4.5 3.7 4.3 5.8 3.7 2.8 3.4 4.2 3.7 3.1 2.9 2.5 2.4 3.8 3.5 3.3 2.3 1.4 1.3 1.6 0.7
2.3 1.6 2.1 1.2 0.7 0.8 1.4 0.9 1.1 0.8 1.8 1.6 2.7 0.8 2.7 3.1 1.7 1.9 1.7 1.6 2.1 3.2 3.8 2.8 4.9 5.2 5.0 4.1 3.0 2.6 2.0 1.9
1.5 0.5 0.8 0.4 0.1 0.0 0.0 0.1 0.0 0.0 0.2 0.4 0.1 0.0 0.0 0.0 0.7 1.0 0.0 0.4 0.8 5.2 6.3 7.6 2.2 5.0 5.0 4.7 5.4 3.7 3.1 2.8
0.1 0.4 0.2 0.1 0.0 0.0 0.0 0.0 0.0 0.0 0.0 0.0 0.0 0.2 0.0 0.0 0.0 0.0 0.0 0.0 0.0 0.0 0.6 0.0 1.0 1.4 2.6 8.1 4.3 10.1 6.3 4.0